Regional Weather Roundup
Issued by NWS Mobile, AL

Home | Current Version | Previous Version | Text Only | Print | Product List | Glossary On
Versions: 1 2 3 4 5 6 7 8 9 10 11 12 13 14 15 16 17 18 19 20 21 22 23 24 25 26 27 28 29 30 31 32 33 34 35 36 37 38 39 40 41 42 43 44 45 46 47 48 49 50
000
ASUS44 KMOB 022317
RWRMOB
REGIONAL WEATHER ROUNDUP
NATIONAL WEATHER SERVICE MOBILE AL
600 PM CDT WED SEP 02 2015

ALZ061>064-030000-
COASTAL ALABAMA


CITY           SKY/WX    TMP DP  RH WIND       PRES   REMARKS
MOBILE REG APT PTSUNNY   85  73  67 SW7       30.01S
BROOKLEY FIELD CLOUDY    85  72  65 SW6       30.01S
GULF SHORES    MOCLDY    84  76  77 W7        29.99F

$$

ALZ051>060-030000-
INTERIOR SOUTHWEST AND SOUTH CENTRAL ALABAMA


CITY           SKY/WX    TMP DP  RH WIND       PRES   REMARKS
ANDALUSIA/OPP  MOSUNNY   88  72  58 CALM      29.97S
EVERGREEN      CLOUDY    90  69  50 N3        29.98S
FLORALA        PTCLDY    90  72  55 CALM      29.99S HX  97
GREENVILLE     FAIR      89  71  55 CALM      29.98F HX  95

$$

FLZ001>006-030000-
WESTERN FLORIDA PANHANDLE


CITY           SKY/WX    TMP DP  RH WIND       PRES   REMARKS
CRESTVIEW      PTSUNNY   90  67  46 SW8       29.98R
DESTIN         PTSUNNY   88  71  57 SW8       29.97S
DUKE FIELD     NOT AVBL
MARY ESTHER    NOT AVBL
MILTON         MOCLDY    89  72  56 VRB6      29.98R HX  96
PENSACOLA      PTSUNNY   87  68  52 SW12G22   29.98S
NAS PENSACOLA  CLOUDY    84  72  67 W5        29.98S
VALPARAISO     NOT AVBL

$$

...MARINE OBSERVATIONS...

STATION/POSITION TIME  SKY/WX   TEMP    WIND        PRES    VSBY
                                AIR SEA DIR/SP/G
                 (UTC)          (F)     (DEG/KT/KT) (MB)    (MI)
PASCAGOULA       2200            85     230/  5/  7 1016.1F
PETIT BOIS ISL   2200            84     220/  8/  9 1016.8F
E DAUPHIN ISLAND 2300            84     230/  5/  7 1015.4F
MIDDLE BAY LIGHT 2200            84     220/ 14     1015.6F
USCG MOBILE BAY  2200            87 85  250/  7/ 11 1014.8F
STATE DOCKS      2200            89 85              1015.4F
MEAHER PARK      2300            86     240/ 11     1014.6S
FORT MORGAN      2200            84     230/ 10/ 12 1015.5F
12 S ORANGE BCH  2250            84 87  230/ 10/ 12 1015.0F
WVE H/P(F/S)=  1/ 5

PENSACOLA BAY    2200            89 86  220/  7/ 10 1015.6F
64 S DAUPHIN ISL 2250            84 87  150/  4/  6 1016.0F
WVE H/P(F/S)=  1/ 6

115 SE PENSACOLA 2250            85 88  310/  2/  2 1016.1F
WVE H/P(F/S)=  1/ 5

MID GULF/42001   2300            83 85  110/  6/  8 1015.0F
EAST GULF/42003  2250            85 87   60/  4/  6 1015.6R
WVE H/P(F/S)=  1/ 5


$$

...NEARBY LOCATIONS

CITY           SKY/WX    TMP DP  RH WIND       PRES   REMARKS
GULFPORT       CLOUDY    84  73  69 SW5       29.99F
BILOXI         NOT AVBL
PASCAGOULA     CLOUDY    83  74  74 SW6       30.00F
HATTIESBURG    CLOUDY    85  69  58 SW3       30.01S
LAUREL         CLOUDY    84  66  54 S5        30.03S
MERIDIAN       CLOUDY    81  74  79 N3        30.00S
MERIDIAN NAS   CLOUDY    82  72  71 N3        30.00F
MONTGOMERY     PTSUNNY   91  68  46 W8        29.98R HX  95
MAXWELL AFB    NOT AVBL
TROY           CLOUDY    92  70  48 NE3       29.99S HX  97
FORT RUCKER    MOSUNNY   91  70  49 CALM      29.96S HX  96
DALEVILLE      NOT AVBL
DOTHAN         PTSUNNY   91  71  51 NE3       30.01S HX  97

$$

...OTHER SURROUNDING LOCATIONS...

CITY           SKY/WX    TMP DP  RH WIND       PRES   REMARKS
BIRMINGHAM     CLOUDY    85  72  65 N6        30.03F
TUSCALOOSA     CLOUDY    84  76  76 CALM      29.99F
COLUMBUS GA    MOSUNNY   90  65  43 N5        29.98S
PANAMA CITY    NOT AVBL
TALLAHASSEE    PTSUNNY   87  75  67 S6        29.97R THUNDER HX  96
BATON ROUGE    CLOUDY    82  72  71 SE5       30.00S
NEW ORLEANS    PTSUNNY   81  71  71 S6        29.99F
SLIDELL        CLOUDY    83  75  77 SW3       29.99F
JACKSON        CLOUDY    87  70  56 E5        30.00S
MCCOMB         CLOUDY    84  69  60 SW5       30.01F

$$

...SURROUNDING MARINE OBSERVATIONS...

STATION/POSITION TIME  SKY/WX   TEMP    WIND        PRES    VSBY
                                AIR SEA DIR/SP/G
                 (UTC)          (F)     (DEG/KT/KT) (MB)    (MI)
WAVELAND         2200            84 86  200/  5/  9 1016.6F
PASCAGOULA RGN A 2200            86     220/  7/  9 1015.8F
PASCAGOULA PORT  2200               86                N/A
GRAND ISLE       2200            79 86  140/  4/  6 1016.0F
SOUTHWEST PASS   2300                                 N/A
PILOT STATION E  2200            77 86   70/  4/  5 1016.4F
SHELL BEACH      2200            79 86  170/  5/  6 1015.6F
PANAMA CITY      2200            87 88  250/ 12/ 13 1014.6F
APALACHICOLA     2200            88 86  250/  6/ 11 1015.0F
TYNDALL TOWER C  2300            85     260/  9/ 11 1015.1F
S APLCHCLA/42036 2250            85 88  300/  4/  6 1015.6F
WVE H/P(F/S)=  1/ 5


$$



USA.gov is the U.S. government's official web portal to all federal, state and local government web resources and services.